Hourly Data Report for October 01, 2017

All times are specified in Local Standard Time (LST). Add 1 hour to adjust for Daylight Saving Time where and when it is observed.

LYTTON A
BRITISH COLUMBIA

50°13'28.000" N
121°34'55.000" W
224.90 m
1114738
71812
WLY

Related Data

No related data is available for this station

Download Data

Hourly Data (October 2017)
Hourly Data Report for October 1, 2017
Temp Definition
°C
Dew Point Temp Definition
°C
Rel Hum Definition
%
Wind Dir Definition
10's deg

Wind Spd Definition
km/h
Visibility Definition
km
Stn Press Definition
kPa
Hmdx Definition


Wind Chill Definition


Weather Definition


TIME
00:00 Legend Double Dagger 8.9 8.5 97 LegendMM 4 16.1 99.08     LegendNANA
01:00 Legend Double Dagger 8.6 8.3 98 4 5 16.1 99.10     LegendNANA
02:00 Legend Double Dagger 8.6 8.0 96   0 16.1 99.11     LegendNANA
03:00 Legend Double Dagger 8.8 8.2 96 18 5 16.1 99.15     LegendNANA
04:00 Legend Double Dagger 8.8 8.4 97   0 16.1 99.17     Rain
05:00 Legend Double Dagger 8.8 8.2 96 15 4 16.1 99.18     LegendNANA
06:00 Legend Double Dagger 8.9 8.2 95   0 16.1 99.24     LegendNANA
07:00 Legend Double Dagger 8.9 8.3 96   0 16.1 99.31     Rain
08:00 Legend Double Dagger 9.4 8.4 93   0 16.1 99.33     LegendNANA
09:00 Legend Double Dagger 10.0 8.2 89   0 16.1 99.34     LegendNANA
10:00 Legend Double Dagger 12.1 7.8 75 1 5 16.1 99.32     LegendNANA
11:00 Legend Double Dagger 13.1 7.1 67   0 16.1 99.30     LegendNANA
12:00 Legend Double Dagger 13.6 5.9 59 LegendMM 4 16.1 99.29     LegendNANA
13:00 Legend Double Dagger 14.8 2.8 44 LegendMM 4 16.1 99.23     LegendNANA
14:00 Legend Double Dagger 15.2 2.4 42 LegendMM 5 16.1 99.22     LegendNANA
15:00 Legend Double Dagger 15.2 1.4 39 1 11 16.1 99.21     LegendNANA
16:00 Legend Double Dagger 15.1 1.6 40 LegendMM 4 16.1 99.21     LegendNANA
17:00 Legend Double Dagger 14.5 1.2 40 1 21 16.1 99.23     LegendNANA
18:00 Legend Double Dagger 13.5 2.6 47 2 9 16.1 99.35     LegendNANA
19:00 Legend Double Dagger 12.4 3.3 54 2 9 16.1 99.39     LegendNANA
20:00 Legend Double Dagger 12.1 3.4 55 2 8 16.1 99.41     LegendNANA
21:00 Legend Double Dagger 12.1 3.3 55 2 17 16.1 99.41     LegendNANA
22:00 Legend Double Dagger 12.5 2.9 52 2 17 16.1 99.42     LegendNANA
23:00 Legend Double Dagger 12.4 2.8 52 2 15 16.1 99.44     LegendNANA

Notes on Data Quality.

Legend

  • E = Estimated
  • M = Missing
  • NA = Not Available
  • ‡ = Partner data that is not subject to review by the National Climate Archives
Date modified: